Regional Weather Roundup
Issued by NWS Charleston, SC

Current Version | Previous Version | Text Only | Print | Product List | Glossary Off
Versions: 1 2 3 4 5 6 7 8 9 10 11 12 13 14 15 16 17 18 19 20 21 22 23 24 25 26 27 28 29 30 31 32 33 34 35 36 37 38 39 40 41 42 43 44 45 46 47 48 49 50

000
ASUS42 KCHS 240728
RWRCHS

REGIONAL WEATHER ROUNDUP
NATIONAL WEATHER SERVICE CHARLESTON SC
300 AM EDT WED AUG 24 2016

NOTE: "FAIR" INDICATES FEW OR NO CLOUDS BELOW 12,000 FEET WITH NO
SIGNIFICANT WEATHER AND/OR OBSTRUCTIONS TO VISIBILITY.

NOT ALL STATIONS ARE QUALITY CONTROLLED. USE DATA WITH CAUTION...
ESPECIALLY DEWPOINT OBSERVATIONS.

SCZ027-030-031-034>040-042>050-240800-
...SOUTHEAST SOUTH CAROLINA...

CITY           SKY/WX    TMP DP  RH WIND       PRES   REMARKS
N CHARLESTON   PTCLDY    73  68  84 NE5       30.21S
WATERFRONT PRK   N/A     81  72  74 NE6       30.19F
MOUNT PLEASANT FAIR      72  70  94 CALM      30.21S
JOHNS ISLAND   FAIR      75  70  83 CALM      30.20F
PINOPOLIS        N/A     77  70  78 E5        30.15F
MONCKS CORNER  FAIR      68  66  94 CALM      30.21F
SUMMERVILLE    FAIR      70  70 100 CALM      30.23S
BEAUFORT MCAS  CLEAR     75  71  87 N3        30.20F
BEAUFORT ARPT  FAIR      77  70  78 CALM      30.19S
HILTON HEAD IS CLEAR     81  70  69 CALM      30.20S
WALTERBORO     MOSUNNY   73  73 100 NE6       30.22S
ALLENDALE      FAIR      73  70  88 CALM      30.21S

...SOUTHERN MIDLANDS AND PEE DEE...

CITY           SKY/WX    TMP DP  RH WIND       PRES   REMARKS
GEORGETOWN     FAIR      73  68  83 CALM      30.23S
KINGSTREE      FAIR      66  63  88 CALM      30.23S
ORANGEBURG     CLEAR     73  69  87 CALM      30.23S
BARNWELL       NOT AVBL
AIKEN          FAIR      73  70  88 E3        30.27S
MANNING        FAIR      68  64  88 CALM      30.23S
COLUMBIA       PTCLDY    76  70  82 CALM      30.23S
SUMTER         CLEAR     73  67  82 NE2       30.21F
FLORENCE       CLEAR     72  67  84 NE3       30.24F
MYRTLE BEACH   CLEAR     81  63  54 E9        30.24F
N MYRTLE BEACH CLEAR     72  66  81 N5        30.22F

$$

GAZ063-065-086>088-099>101-113>116-118-119-134>141-150-240800-
...SOUTHEAST GEORGIA...

CITY           SKY/WX    TMP DP  RH WIND       PRES   REMARKS
SAVANNAH ARPT  PTCLDY    76  71  85 CALM      30.20F
HUNTER AAF     CLEAR     79  76  90 CALM      30.17F
FORT STEWART   CLEAR     74  72  93 CALM      30.17S
STATESBORO     CLEAR     75  74  95 CALM      30.20F
SYLVANIA       SUNNY    N/A N/A N/A CALM      30.22S
CLAXTON        FAIR      73  73 100 CALM      30.19F FOG

...CSRA...CENTRAL AND FAR SOUTHEAST GEORGIA...

CITY           SKY/WX    TMP DP  RH WIND       PRES   REMARKS
THOMSON        MOCLDY    78  75  92 MISG      30.26S
AUGUSTA-BUSH   CLOUDY    76  73  91 E5        30.21F
AUGUSTA-DANIEL CLOUDY    79  71  76 SE5       30.22F
SWAINSBORO     FAIR      75  73  94 NE3       30.21S
VIDALIA        CLEAR     75  75 100 E5        30.19F
EASTMAN        FAIR      75  75 100 CALM      30.21F
HAZLEHURST     FAIR      76  76 100 CALM      30.17F
ALMA           CLOUDY    75  74  96 CALM      30.18F
WAYCROSS         N/A     77  77 100 CALM      30.17F
JESUP          FAIR      77  77 100 CALM      30.18F
BAXLEY         FAIR      75  75 100 E3        30.18F
BRUNSWICK      PTCLDY    77  77 100 CALM      30.18S
SAINT SIMONS   PTCLDY    83  73  72 E12       30.16F

$$

SCZ027-028-034-036>038-045-046-048>050-GAZ119-141-240800-
...LAKE AND SUPPLEMENTAL COASTAL OBSERVATIONS...

STATION/POSITION TIME  TEMP    WIND        PRES    WAVE   SWELL
                       AIR SEA DIR/SP/G            HT/PER HT/PER/DIR
                 (UTC) (F)     (DEG/KT/KT) (MB)    (FT/S) (FT/S/D)
WINYAH BAY       0600   81      90/  8     1023.0
LAKE MURRAY      0600   79     130/  6/  9 1023.4F
ACE BASIN NERRS  0600   75        CALM     1023.0F
FORT PULASKI     0700   83 87   80/ 12/ 13 1022.6F
SAPELO ISLAND    0700   82      70/  5     1022.0S

$$

ANZ835-935-AMZ111-154-330-350-352-354-370-450-454-472-240800-
...C-MAN AND BUOY OBSERVATIONS...

STATION/POSITION TIME  TEMP    WIND        PRES    WAVE   SWELL
                       AIR SEA DIR/SP/G            HT/PER HT/PER/DIR
                 (UTC) (F)     (DEG/KT/KT) (MB)    (FT/S) (FT/S/D)
BUOY 41004       0650   82 85   60/ 12/ 16 1021.9F   3/ 5   2/110/ 8
BUOY 41008       0650   83 85   80/ 12/ 14 1021.3F   3/ 6   2/ 90/ 8
FOLLY BEACH CMAN 0700   83      90/ 11/ 12 1023.0F
CAPERS NEARSHORE 0608   83 84   90/ 12/ 16 1022.5F
FRIPP NEARSHORE  0708   83 87   90/ 12/ 16 1021.6F


STATION/POSITION TIME  TEMP    WIND        PRES    WAVE   SWELL
                       AIR SEA DIR/SP/G            HT/PER HT/PER/DIR
                 (UTC) (F)     (DEG/KT/KT) (MB)    (FT/S) (FT/S/D)
5E ST. MARYS GA  0701      83                N/A     3/ 5
FRYING PAN BUOY  0700   82 85   50/ 16/ 19 1022.6F
BUOY 41025       0650   78 84   30/ 10/ 14 1023.5S   3/ 8   3/ 80/ 8
CAPE LOOKOUT NC  0700   76      10/  8/  9 1023.5F
BUOY 41002       0650   82 85   50/ 14/ 16 1020.8F   4/ 5   2/ 50/ 7
BUOY 41010       NOT AVBL
ST AUGUSTINE FL  0700   83 83   60/ 13/ 14 1021.2F


$$




USA.gov is the U.S. government's official web portal to all federal, state and local government web resources and services.